Weather Roundup
Issued by NWS

Home | Current Version | Previous Version | Text Only | Print | Product List | Glossary On
Versions: 1 2 3 4 5 6 7 8 9 10 11 12 13 14 15 16 17 18 19 20 21 22 23 24 25 26 27 28 29 30 31 32 33 34 35 36 37 38 39 40 41 42 43 44 45 46 47 48 49 50
000
NZUS93 KARX 231910
HRRWXR

CURRENT HOURLY OBSERVATIONS ACROSS
MUCH OF THE UPPER MISSISSIPPI VALLEY
NATIONAL WEATHER SERVICE LA CROSSE WI
100 PM CST THU FEB 23 2017


...SOUTHEAST MINNESOTA...


CITY           SKY/WX    TMP DP  RH WIND       PRES   REMARKS
ROCHESTER      CLOUDY    36  32  85 NE14      29.81F WCI  27
ROCHESTER/MAYO CLOUDY    37  31  79 NE9G17    29.82F WCI  30
WINONA         CLOUDY    39  30  70 NE9       29.83F WCI  33
AUSTIN         CLOUDY    37  30  75 NE10G17   29.81R WCI  30
ALBERT LEA     CLOUDY    36  32  87 NE13      29.83R WCI  27
DODGE CENTER   CLOUDY    36  30  80 NE13      29.82F WCI  27
PRESTON        CLOUDY    38  31  77 NE14      29.81R WCI  30
OWATONNA       PTSUNNY   36  28  75 NE13      29.84F WCI  27
FARIBAULT      CLOUDY    34  28  80 N13       29.86F WCI  25
$$

...ELSEWHERE IN MINNESOTA...


CITY           SKY/WX    TMP DP  RH WIND       PRES   REMARKS
MINNEAPOLIS    CLOUDY    38  23  55 N17       29.91F WCI  28
INTNL FALLS    SUNNY     24  10  55 NW12      29.97F WCI  13
DULUTH         CLOUDY    27  22  81 NW9       29.92F WCI  18
RED WING       CLOUDY    39  27  60 NE8       29.87F WCI  34
REDWOOD FALLS  CLOUDY    32  24  72 N10       29.92F WCI  24
MANKATO          N/A     34  27  75 NE14      29.88F WCI  25
WORTHINGTON    LGT SNOW  30  26  85 N23       29.84F FOG     WCI  17
FAIRMONT       LGT RAIN  33  29  85 N17       29.84S WCI  22
$$

...SOUTHWEST WISCONSIN...


CITY           SKY/WX    TMP DP  RH WIND       PRES   REMARKS
LA CROSSE      PTSUNNY   44  30  57 N15G23    29.81F
PRAIRIE DU CHI CLOUDY    46  31  56 NE3       29.82S
BOSCOBEL       CLOUDY    46  32  58 VRB6      29.84R
LONE ROCK      CLOUDY    46  33  60 SE6       29.84R
PLATTEVILLE    CLOUDY    45  38  77 E8        29.81F
FORT MC COY    CLOUDY    42  32  65 N13       29.83F
CAMP DOUGLAS   CLOUDY    43  30  61 N10       29.83F
MAUSTON-NEW LI PTCLDY    44  32  63 NE7       29.80F
VIROQUA        FAIR      42  32  67 N10G17    29.81R
WIS DELLS      CLOUDY    44  32  62 NE16      29.77F
$$

...ELSEWHERE IN WISCONSIN...


CITY           SKY/WX    TMP DP  RH WIND       PRES   REMARKS
MILWAUKEE      CLOUDY    40  33  76 NE14      29.86F WCI  32
MADISON        CLOUDY    44  35  70 NE10G23   29.80F
GREEN BAY      PTSUNNY   42  33  70 N13       29.87F
EAU CLAIRE     MOSUNNY   40  26  57 NE12      29.87F WCI  33
BLACK RVR FLS  FAIR      42  28  57 NE8       29.85S
MEDFORD        SUNNY     38  27  63 N7        29.85F WCI  33
WAUSAU         SUNNY     40  25  55 N10       29.84F WCI  33
WIS RAPIDS     SUNNY     45  30  55 NE8G17    29.85F
MARSHFIELD     SUNNY     41  28  60 NE13      29.83F
RICE LAKE      PTSUNNY   36  27  69 N7        29.91F WCI  30
$$

...NORTHEAST IOWA...


CITY           SKY/WX    TMP DP  RH WIND       PRES   REMARKS
WATERLOO       CLOUDY    44  34  67 NE16      29.75F
DUBUQUE        CLOUDY    44  36  73 E8        29.80F
DECORAH        CLOUDY    43  32  65 NE9       29.81R
MASON CITY     CLOUDY    38  33  82 NE15      29.80F WCI  29
CHARLES CITY   CLOUDY    41  37  87 NE14      29.81S
OELWEIN        CLOUDY    43  36  75 E13       29.78F
$$

...ELSEWHERE IN IOWA...


CITY           SKY/WX    TMP DP  RH WIND       PRES   REMARKS
DES MOINES     CLOUDY    43  38  82 E13G20    29.70F
IOWA CITY        N/A     46  37  71 NE15      29.74F
FORT DODGE     CLOUDY    37  30  75 NE14G21   29.75F WCI  29
MARSHALLTOWN   CLOUDY    43  36  76 NE14      29.72F
CEDAR RAPIDS   CLOUDY    44  38  79 E14       29.72F
$$

...NORTHERN ILLINOIS...


CITY           SKY/WX    TMP DP  RH WIND       PRES   REMARKS
CHICAGO-OHARE  CLOUDY    43  35  73 NE17      29.81F
CHICAGO-MIDWAY CLOUDY    45  37  73 NE15      29.80F
MOLINE         CLOUDY    50  39  66 NE15      29.74F
ROCKFORD       CLOUDY    48  39  71 NE9       29.82R
PEORIA         CLOUDY    53  45  74 NE10      29.74F
$$

NOTE: "FAIR" INDICATES FEW OR NO CLOUDS BELOW 12,000 FEET WITH NO
SIGNIFICANT WEATHER AND/OR OBSTRUCTIONS TO VISIBILITY. WIND
SPEEDS ARE IN MILES-PER-HOUR.




USA.gov is the U.S. government's official web portal to all federal, state and local government web resources and services.